Wind_Speed
42 42 41 40 38 37 36 35 34 33 33 32 32 32 31 31 31 31 31 31 31 31 31 31 31 31 31 32 32 32 32 33 33 34 34 34 34 33 33 33 33 32 32
44 43 43 41 41 40 39 37 37 36 35 35 34 34 33 32 32 32 32 32 32 33 33 33 33 33 33 33 33 34 34 35 35 35 36 36 35 35 35 34 33 33 33
45 45 44 43 43 43 42 41 40 38 38 37 36 36 36 35 34 34 33 33 34 34 34 34 34 35 35 35 35 35 36 36 36 36 37 37 37 37 36 36 35 34 34
46 46 45 45 45 44 43 43 42 41 40 39 38 38 37 37 36 35 35 35 35 35 36 36 36 36 37 37 37 37 37 37 37 37 38 38 38 37 37 37 36 35 35
47 47 46 46 46 45 45 44 44 43 42 41 40 39 39 39 38 37 37 37 37 37 37 37 38 38 38 39 39 39 39 39 39 38 38 38 37 37 36 36 36 36 35
48 48 48 48 47 47 47 46 45 45 44 43 42 42 41 41 40 40 40 39 39 39 39 39 39 39 40 40 41 41 40 40 39 39 38 38 37 37 37 37 36 35 35
48 48 48 48 48 48 47 47 47 46 45 46 46 45 44 44 43 42 42 41 41 41 42 42 41 41 41 41 41 41 40 40 39 38 39 39 39 39 38 38 37 37 36
48 48 47 47 47 47 46 47 47 47 47 47 47 47 47 47 46 45 44 42 42 42 42 42 42 41 41 41 40 40 40 39 39 39 39 39 40 40 39 39 39 39 38
48 49 49 48 48 47 46 46 47 47 48 49 49 49 49 48 48 47 46 44 44 44 43 41 42 41 41 41 40 40 40 40 40 39 39 39 40 40 40 40 41 41 40
50 49 49 49 50 49 49 48 48 48 49 49 50 50 50 49 48 47 45 44 44 44 44 43 43 42 41 41 41 41 42 42 41 41 41 41 41 41 41 42 43 43 43
50 50 51 51 51 51 50 49 50 49 49 50 50 49 49 49 48 47 45 44 44 44 44 44 44 43 43 42 42 42 42 42 42 43 42 42 43 43 44 44 44 44 44
48 49 50 51 51 51 50 50 49 50 50 51 51 51 50 49 47 47 46 46 46 45 45 45 45 45 44 44 43 44 44 44 44 44 44 44 44 45 45 45 45 45 45
45 46 47 48 49 49 49 49 49 49 49 50 50 51 50 49 49 47 47 47 47 47 47 47 46 46 46 45 45 46 46 46 46 46 46 46 47 47 48 48 48 47 47
41 42 43 44 45 47 48 49 49 49 48 48 47 49 48 47 48 47 47 48 48 48 48 49 49 48 47 47 47 48 48 48 48 48 48 49 49 50 50 50 49 48 48
36 37 38 40 43 44 46 46 46 46 46 46 46 46 47 47 47 47 47 48 48 49 49 49 50 50 50 49 49 49 50 50 50 51 51 52 52 52 52 52 52 50 50
32 34 35 37 38 40 40 40 41 42 43 45 46 46 47 47 47 47 48 48 48 49 50 49 51 51 50 51 52 52 51 51 51 51 52 53 53 53 52 52 52 51 51
28 29 31 33 34 34 35 36 38 40 41 42 43 46 47 47 47 47 49 49 48 49 49 49 51 51 52 52 53 54 54 54 53 52 53 52 52 52 52 51 49 49 48
25 26 27 28 29 31 33 34 37 39 40 41 42 43 45 46 46 47 47 48 48 48 49 49 50 51 52 52 53 53 54 55 54 54 54 53 51 51 50 49 48 48 48
23 24 25 26 28 30 32 34 35 37 38 39 40 41 42 43 43 43 44 45 45 46 47 49 49 50 51 52 52 52 53 53 53 53 53 51 50 49 47 47 48 48 48
21 23 25 27 29 30 31 33 34 35 36 38 39 40 40 41 42 43 43 44 45 46 48 49 49 49 50 51 51 52 53 53 52 51 50 50 49 48 47 47 47 47 47
20 22 23 25 26 28 29 31 32 34 35 37 38 39 41 42 42 43 44 45 46 47 48 49 49 48 49 49 50 51 52 51 51 50 49 49 48 47 47 46 45 45 45
17 20 22 23 25 26 27 28 30 32 34 36 37 39 41 42 43 43 43 44 46 46 47 47 48 48 49 49 49 49 50 49 48 48 48 47 47 47 46 45 44 44 44
16 19 21 23 25 26 28 29 31 32 33 35 36 38 40 41 41 43 43 44 45 46 47 47 48 48 48 48 48 49 49 48 47 47 47 46 46 45 44 44 43 43 42
18 19 21 23 25 26 27 29 30 31 32 33 35 37 38 40 41 43 44 45 46 47 47 47 48 48 49 50 50 50 48 47 47 48 47 46 45 45 44 44 44 43 42
19 20 21 23 25 27 29 30 31 32 32 32 34 35 37 38 40 42 43 44 45 46 47 47 47 48 49 50 50 48 47 46 46 46 47 46 45 44 43 43 44 44 42
20 21 23 25 26 27 29 31 32 32 32 33 35 36 37 38 39 41 42 43 44 45 47 48 48 48 49 49 48 46 46 45 45 45 45 45 44 43 42 42 43 42 40
Wind_Direction
256 257 257 258 258 259 259 259 260 261 262 264 265 266 267 268 266 266 267 267 268 270 271 271 272 274 275 277 279 281 283 285 286 288 290 292 294 294 294 296 296 297 298
256 256 256 257 258 258 258 258 259 260 262 263 263 264 266 267 266 265 267 268 269 270 271 271 272 273 275 276 279 281 283 284 286 287 289 291 292 291 293 294 295 296 297
255 256 255 255 256 257 257 258 258 259 261 262 262 263 264 265 266 265 267 269 270 270 271 272 273 274 275 276 278 280 282 284 285 287 289 290 290 290 291 293 294 294 294
253 254 255 255 255 255 256 257 258 258 260 260 261 262 263 264 265 266 267 268 269 271 272 272 273 274 276 277 277 279 281 282 284 286 288 290 290 289 290 291 293 294 294
252 253 253 254 254 254 255 255 257 258 258 259 259 260 261 263 264 266 267 268 269 270 272 274 274 274 276 277 278 279 280 282 284 285 286 288 290 289 290 290 292 292 292
252 252 253 253 253 254 254 255 256 257 257 257 258 259 260 262 263 264 266 268 269 270 271 273 274 275 276 277 279 279 280 281 283 284 285 287 288 289 290 290 291 291 290
252 252 252 253 253 253 253 254 255 255 256 257 258 259 260 262 263 264 266 268 269 270 271 272 273 274 276 277 278 279 280 280 282 284 284 285 286 288 288 288 290 290 290
251 252 252 252 252 253 254 254 254 254 256 258 259 259 260 262 263 264 265 266 267 270 271 272 272 273 275 277 277 278 279 281 281 283 284 285 286 287 287 286 288 288 287
251 251 251 252 251 252 253 254 254 255 256 257 259 260 261 263 263 264 265 265 267 268 269 270 272 273 274 275 276 277 278 280 281 283 283 285 286 287 286 286 286 286 285
252 252 251 252 253 253 253 253 254 256 256 257 259 260 262 263 264 262 263 265 266 267 268 269 270 273 273 275 275 277 278 280 281 282 283 284 285 285 286 286 285 285 284
253 253 253 253 253 254 254 253 254 255 256 257 259 261 262 263 264 262 262 265 265 266 267 268 270 272 275 275 277 278 279 280 281 281 283 283 284 285 285 286 285 283 283
253 253 253 253 253 253 253 255 255 256 258 258 258 259 261 264 265 264 264 264 264 265 267 269 271 272 273 275 276 278 278 279 280 281 282 283 283 284 285 285 284 282 281
255 255 255 254 254 254 254 255 257 258 258 259 259 260 261 264 265 265 265 264 264 265 267 269 271 271 273 275 276 278 278 278 279 280 280 282 283 284 284 284 283 281 279
256 254 254 253 253 253 254 255 257 257 258 260 262 262 263 265 265 265 265 265 266 266 268 268 269 272 273 275 276 276 277 278 278 279 280 281 283 284 283 283 282 280 278
255 254 254 255 254 254 255 256 257 257 258 261 263 263 264 265 265 265 266 266 267 267 268 269 271 272 273 274 275 276 278 278 279 279 280 282 283 283 283 281 280 279 276
256 255 255 256 255 255 256 257 257 258 259 261 263 263 264 265 265 265 266 267 268 268 269 270 272 272 274 275 276 277 278 279 280 281 281 282 283 284 283 281 280 279 276
258 258 258 256 255 256 257 258 259 260 261 263 263 263 263 264 264 266 267 268 269 270 271 270 272 273 274 274 275 276 277 278 279 280 282 283 283 283 283 281 279 277 275
257 256 256 255 257 259 260 260 260 260 262 265 266 266 265 265 266 267 267 268 270 271 271 271 273 274 274 275 275 276 278 279 280 281 283 283 283 283 283 282 280 277 275
257 256 256 257 260 262 262 263 263 264 264 265 266 267 268 267 267 268 269 269 271 272 272 273 274 275 276 276 277 278 279 280 281 282 282 283 283 283 283 282 281 279 277
261 260 260 263 265 267 268 267 267 267 267 268 269 269 269 270 270 271 271 271 272 274 274 275 276 277 277 278 279 280 280 281 281 281 281 282 283 282 282 283 282 280 278
268 267 267 268 270 272 273 271 271 270 270 271 271 271 271 272 273 274 274 274 275 276 277 277 278 279 280 280 281 281 281 282 281 280 280 281 281 282 282 282 283 281 280
274 273 272 273 274 275 275 275 274 273 273 273 274 274 274 275 277 276 277 277 277 278 279 280 279 279 281 281 281 282 283 282 281 281 281 280 280 281 280 280 281 282 280
280 278 275 275 276 275 274 276 276 276 277 276 276 277 278 279 280 279 280 280 280 279 281 281 281 281 281 281 282 283 283 283 281 280 280 279 279 278 278 279 280 281 280
287 284 282 280 279 278 278 279 279 280 280 279 280 280 281 281 282 282 283 283 282 282 282 282 282 282 282 282 283 283 282 282 282 281 279 279 278 278 277 278 279 279 278
293 292 290 288 285 282 282 282 281 283 283 284 283 284 285 285 285 286 286 285 284 283 283 282 283 282 282 283 283 282 283 283 282 281 280 279 278 276 276 277 277 277 276
296 295 295 294 291 289 286 284 284 285 285 286 287 288 289 289 288 289 289 288 288 286 285 283 283 283 283 283 283 282 283 283 283 281 279 279 278 276 275 276 275 275 273
Height
5814 5816 5817 5819 5821 5822 5823 5824 5825 5826 5827 5828 5828 5828 5828 5829 5829 5829 5829 5828 5828 5828 5828 5827 5827 5826 5825 5824 5823 5822 5821 5819 5817 5816 5814 5811 5809 5807 5805 5803 5800 5798 5795
5805 5807 5809 5811 5813 5814 5815 5817 5818 5819 5820 5820 5821 5821 5822 5822 5822 5822 5822 5822 5822 5821 5821 5820 5820 5819 5818 5817 5816 5815 5814 5812 5811 5809 5807 5804 5802 5800 5798 5796 5793 5791 5789
5795 5798 5800 5802 5804 5806 5807 5809 5810 5811 5812 5813 5813 5814 5814 5814 5815 5815 5815 5815 5815 5814 5814 5813 5813 5812 5811 5810 5809 5808 5806 5805 5803 5801 5799 5797 5795 5793 5791 5789 5786 5784 5782
5785 5788 5790 5792 5794 5796 5798 5800 5801 5803 5804 5805 5805 5806 5807 5807 5807 5808 5808 5808 5807 5807 5806 5806 5805 5805 5804 5803 5801 5800 5799 5797 5796 5794 5792 5790 5787 5785 5783 5781 5779 5777 5775
5775 5777 5780 5782 5784 5787 5789 5790 5792 5794 5795 5796 5797 5798 5798 5799 5799 5800 5800 5800 5799 5799 5799 5798 5797 5797 5796 5794 5793 5792 5791 5789 5787 5785 5784 5782 5780 5777 5775 5774 5772 5770 5768
5764 5767 5770 5772 5774 5777 5779 5781 5783 5784 5786 5787 5788 5789 5790 5790 5791 5791 5792 5791 5791 5790 5790 5790 5789 5788 5787 5786 5785 5784 5782 5780 5779 5777 5775 5773 5771 5769 5768 5766 5764 5762 5760
5754 5757 5760 5762 5765 5767 5769 5771 5773 5774 5776 5777 5778 5780 5781 5781 5782 5782 5782 5782 5782 5781 5781 5780 5780 5779 5778 5777 5776 5775 5773 5772 5770 5768 5767 5765 5763 5761 5759 5757 5756 5754 5752
5743 5746 5749 5752 5754 5757 5759 5761 5763 5764 5766 5767 5768 5769 5770 5772 5772 5772 5772 5773 5773 5772 5772 5771 5770 5769 5768 5767 5766 5765 5764 5763 5761 5759 5758 5756 5754 5752 5750 5748 5746 5745 5743
5733 5736 5738 5741 5743 5746 5748 5750 5752 5754 5756 5757 5757 5758 5760 5761 5762 5762 5762 5763 5763 5762 5762 5761 5760 5759 5759 5758 5757 5755 5754 5753 5752 5750 5748 5746 5744 5742 5740 5739 5737 5735 5733
5722 5724 5727 5730 5732 5734 5737 5739 5741 5743 5744 5745 5746 5748 5749 5750 5751 5752 5752 5752 5752 5752 5751 5751 5750 5749 5748 5747 5746 5745 5744 5743 5741 5740 5738 5737 5735 5732 5730 5728 5726 5724 5723
5711 5714 5716 5718 5721 5723 5726 5728 5730 5732 5733 5734 5735 5736 5737 5738 5739 5740 5742 5742 5742 5742 5741 5741 5740 5739 5738 5737 5736 5735 5733 5732 5731 5729 5727 5726 5724 5722 5719 5717 5715 5713 5711
5700 5702 5704 5706 5709 5711 5714 5716 5718 5720 5722 5723 5724 5725 5726 5727 5728 5728 5730 5731 5731 5731 5730 5730 5729 5728 5727 5726 5725 5724 5722 5720 5719 5717 5716 5714 5712 5710 5707 5705 5703 5701 5699
5689 5691 5692 5695 5697 5699 5702 5704 5706 5708 5710 5711 5712 5713 5714 5715 5716 5717 5718 5719 5719 5720 5720 5719 5718 5717 5715 5714 5713 5711 5710 5708 5707 5705 5703 5701 5699 5697 5695 5692 5690 5688 5686
5678 5680 5681 5683 5685 5688 5690 5692 5694 5696 5698 5700 5701 5702 5703 5704 5705 5705 5706 5706 5707 5708 5708 5708 5706 5704 5703 5702 5700 5699 5697 5695 5693 5692 5690 5687 5685 5683 5680 5677 5675 5673 5672
5669 5670 5671 5672 5675 5677 5679 5681 5683 5685 5687 5688 5690 5691 5691 5693 5693 5693 5693 5693 5694 5694 5696 5695 5693 5692 5690 5689 5687 5685 5683 5681 5679 5677 5675 5673 5670 5667 5664 5661 5659 5657 5656
5660 5661 5662 5663 5665 5667 5669 5670 5672 5674 5676 5677 5678 5679 5680 5681 5681 5681 5681 5681 5680 5680 5681 5682 5680 5678 5676 5674 5673 5671 5669 5667 5664 5662 5660 5657 5654 5651 5648 5645 5642 5640 5639
5653 5654 5655 5656 5657 5659 5660 5662 5663 5665 5666 5666 5667 5667 5668 5669 5669 5669 5669 5668 5667 5666 5667 5668 5666 5664 5661 5660 5658 5656 5653 5651 5649 5647 5644 5641 5637 5634 5631 5628 5625 5623 5622
5646 5647 5648 5649 5650 5652 5653 5653 5654 5655 5656 5656 5656 5656 5656 5656 5656 5656 5656 5655 5654 5653 5653 5653 5652 5649 5647 5645 5643 5641 5638 5636 5634 5631 5628 5625 5621 5618 5615 5612 5610 5608 5607
5640 5641 5642 5643 5644 5644 5645 5645 5645 5646 5646 5646 5646 5646 5645 5644 5644 5644 5643 5642 5641 5640 5639 5638 5637 5635 5632 5630 5628 5626 5623 5621 5618 5615 5612 5609 5606 5603 5600 5598 5595 5593 5591
5634 5634 5635 5636 5636 5636 5636 5636 5636 5636 5636 5636 5635 5635 5634 5634 5633 5632 5631 5629 5628 5627 5625 5623 5622 5620 5618 5615 5613 5611 5609 5606 5602 5599 5597 5594 5591 5588 5586 5583 5581 5578 5576
5629 5629 5629 5629 5628 5628 5628 5627 5627 5627 5627 5626 5626 5625 5624 5622 5621 5620 5618 5617 5615 5613 5611 5609 5608 5606 5603 5601 5598 5596 5594 5591 5588 5584 5582 5580 5577 5575 5572 5569 5566 5564 5562
5624 5623 5623 5622 5622 5621 5620 5619 5619 5618 5617 5616 5615 5614 5613 5611 5609 5607 5605 5604 5601 5599 5597 5595 5593 5591 5589 5586 5584 5581 5578 5575 5574 5571 5568 5566 5562 5560 5557 5555 5553 5551 5548
5619 5618 5617 5616 5615 5614 5613 5612 5611 5610 5608 5607 5605 5604 5602 5599 5597 5595 5593 5590 5587 5584 5583 5581 5579 5577 5575 5572 5569 5566 5563 5559 5558 5555 5553 5552 5548 5546 5544 5541 5539 5537 5535
5613 5612 5611 5609 5608 5607 5605 5604 5602 5601 5599 5597 5595 5593 5591 5588 5585 5583 5581 5577 5574 5571 5569 5567 5565 5562 5559 5556 5553 5551 5548 5546 5543 5540 5538 5537 5535 5533 5530 5527 5525 5524 5522
5608 5606 5604 5602 5601 5599 5597 5595 5593 5592 5590 5588 5585 5583 5580 5577 5575 5572 5569 5566 5562 5559 5555 5552 5550 5547 5544 5541 5538 5536 5533 5531 5529 5526 5523 5521 5520 5518 5516 5514 5512 5510 5508
5603 5601 5598 5596 5593 5591 5589 5587 5585 5583 5581 5579 5576 5573 5570 5567 5563 5560 5556 5553 5550 5546 5542 5539 5536 5533 5530 5527 5523 5521 5519 5516 5514 5512 5510 5507 5505 5503 5503 5501 5498 5496 5495